Location: Fluertsh�userhof
(48.7537°N, 10.3850°E)
Time: 03:40:16
(UTC+00:00)

Cosmos 1626 - Pass Details

Date: 16 January 2021
Orbit: 490 x 493 km, 82.5° (Epoch: 07 March)

Event Time Altitude Azimuth Distance (km) Brightness Sun altitude
Rises 16:31:33 0° 164° (SSE) 2,565 5.8 -6.6°
Reaches altitude 10° 16:33:48 10° 154° (SSE) 1,688 4.8 -7.0°
Maximum altitude 16:37:04 30° 91° (E) 904 2.9 -7.5°
Drops below altitude 10° 16:40:22 10° 29° (NNE) 1,701 4.4 -8.0°
Enters shadow 16:42:15 - 20° (NNE) 2,434 5.2 -8.3°
